STARLINK-32509, 62042

Orbit data source: Space-Track

STARLINK-32509, 62042 is a payload satellite owned by SpaceX/Seattle (US) in LEO that was launched on Thu, 21 Nov 2024 UTC via an FALCON 9 launch vehicle from the Air Force Eastern Test Range (AFETR). Payload-class satellites include a variety of spacecraft equipped with specific instruments for various scientific and technological missions. These include communications satellites like Starlink; space stations such as the ISS; scientific satellites like the Hubble; Earth observation satellites from companies like Planet Labs, Umbra, and HawkEye 360; GPS; miniature CubeSats for education and research; and military/defense satellites.

Loading next visibility...
Identifier
62042, 2024-216L
Orbit
LEO
Country
Flag of USUS
Related business
Manufacturer
SpaceX/Seattle
Mission
Operational Commercial Communications
Bus & Motor
STARLINK V2M, Unknown motor
Mass
730 kg wet, ~700 kg dry
Launch date (UTC)
2024-11-21 (11 months ago)
Launch vehicle
FALCON 9
Launch site
Air Force Eastern Test Range (AFETR)
Object type
Payload
Rocket body
Debris
Shape & HBR
Box + 2 Pan, 17.7 m
Radar Cross Section
33.884 m², Large (>1 m²)

Expand to show TLE details & history
Last TLE update: 14 hours ago

TLE from 14 hours ago
0 STARLINK-32509
1 62042U 24216L   25303.88688676  .00024381  00000-0  89218-3 0  9998
2 62042  43.0023 269.4136 0001098 261.1850  98.8877 15.27594888 54025
Epoch: 2025-10-30T21:17Z
TLE epoch observation values (Epoch: 2025-10-30T21:17:07.016Z)
Latitude
-0.00003°
Longitude
-89.30489°
Altitude
482.897 km
Speed
7.626 km/s
True Right ascension
17h 57m 39s
True Declination
0° 00' 00"
Sunlit
Object was in daylight at epoch
Visualization orbit readout
Latitude
Unknown
Longitude
Unknown
Altitude
Unknown
Speed
Unknown
Apparent Right ascension
Unknown
Apparent Declination
Unknown
Sunlit
N/A
Visualization observer readout
Local Sidereal Time
06:31:31
Azimuth
Unknown
Elevation
Unknown
Doppler factor
Unknown
Orbital elements
Apogee altitude
485.703 km
Perigee altitude
484.196 km
Semi-major axis
6,863.086 km
Eccentricity
0.00011
Inclination
43.0023°
RAAN
269.4136°
Arg. of periapsis
261.185°
True anomaly
98.90013°
Mean anomaly
98.8877°
Eccentric anomaly
98.89392°
Mean motion
3.81737 °/min
Orbital period
94.31 mins
BSTAR
0.00089218
Loading maneuver chart data...
Computing Atmospheric mass density...
Loading historical data...
Loading historical data...
Loading historical data...
Loading historical data...
Loading historical data...
Loading historical data...
Loading historical data...

Documentation

Showing up to 5 results
|